Waarnemingen

Advertentie
Mijn weer
Gourdon, Frankrijk (7535): temperatuur & dauwpunt: 15.03.2019 13:00:00 - 21.03.2019 13:00:00 (CET)Gourdon, Frankrijk (7535): temperatuur 5cm: 15.03.2019 13:00:00 - 21.03.2019 13:00:00 (CET)Gourdon, Frankrijk (7535): temperatuur -20cm & temperatuur -100cm: 15.03.2019 13:00:00 - 21.03.2019 13:00:00 (CET)Gourdon, Frankrijk (7535): windsnelheid & windstoten: 15.03.2019 13:00:00 - 21.03.2019 13:00:00 (CET)Gourdon, Frankrijk (7535): windrichting: 15.03.2019 13:00:00 - 21.03.2019 13:00:00 (CET)Gourdon, Frankrijk (7535): luchtdruk: 15.03.2019 13:00:00 - 21.03.2019 13:00:00 (CET)Gourdon, Frankrijk (7535): zicht: 15.03.2019 13:00:00 - 21.03.2019 13:00:00 (CET)Gourdon, Frankrijk (7535): Zonneschijnduur: 15.03.2019 13:00:00 - 21.03.2019 13:00:00 (CET)Gourdon, Frankrijk (7535): neerslag: 15.03.2019 13:00:00 - 21.03.2019 13:00:00 (CET)
Datum & Tijd tt [°C] td [°C] tt 5cm [°C] tt -20cm [°C] tt -100cm [°C] ff [km/u] ff [kn] fx [km/u] fx [kn] dd ppp [hPa] vv [km] sd [min] rr [mm]
21.03.2019 13:00:00 14,4 1,3 22,1 8,6 10,3 5 3 11 6 WZW 1029,3 20 60 0,0
21.03.2019 12:00:00 12,3 0,4 19,4 8,4 10,4 5 3 15 8 NW 1029,8 20 60 0,0
21.03.2019 11:00:00 9,9 1,0 17,1 8,3 10,3 5 3 10 5 NW 1030,4 20 60 0,0
21.03.2019 10:00:00 7,8 1,0 14,2 8,3 10,3 5 3 9 5 NNW 1030,8 20 60 0,0
21.03.2019 09:00:00 5,6 0,6 8,1 8,5 10,3 0 0 6 3 N 1031,3 20 60 0,0
21.03.2019 08:00:00 2,4 -1,0 -2,3 8,7 10,3 5 3 9 5 N 1031,3 20 42 0,0
21.03.2019 07:00:00 -0,6 -2,8 -2,8 8,9 10,4 7 4 10 5 ZO 1031,3 20 0 0,0
21.03.2019 06:00:00 0,1 -2,8 -2,9 9,1 10,4 0 0 9 5 N 1031,1 20 0 0,0
21.03.2019 05:00:00 0,3 -2,6 -2,1 9,3 10,3 3 2 8 5 ZO 1030,9 20 0 0,0
21.03.2019 04:00:00 4,0 -1,6 -1,8 9,5 10,3 5 3 7 4 NNW 1030,4 20 0 0,0
21.03.2019 03:00:00 3,8 -2,2 -1,3 9,7 10,3 4 2 7 4 NNO 1030,8 20 0 0,0
21.03.2019 02:00:00 4,3 -2,3 -0,5 9,9 10,3 5 3 10 6 NO 1031,5 20 0 0,0
21.03.2019 01:00:00 4,2 -2,7 -0,3 10,0 10,3 4 2 10 5 NNO 1031,9 20 0 0,0
21.03.2019 00:00:00 7,6 -2,7 2,8 10,2 10,3 7 4 14 8 NNO 1031,4 20 0 0,0
20.03.2019 23:00:00 8,0 -2,6 4,6 10,4 10,3 8 4 19 11 NNO 1031,8 20 0 0,0
20.03.2019 22:00:00 8,6 -2,1 5,1 10,5 10,4 11 6 21 11 NO 1031,6 20 0 0,0
20.03.2019 21:00:00 9,3 -1,7 6,0 10,6 10,4 7 4 15 8 N 1031,4 20 0 0,0
20.03.2019 20:00:00 10,5 -1,6 7,7 10,6 10,3 8 4 21 11 NNW 1030,6 20 0 0,0
20.03.2019 19:00:00 12,0 -2,3 10,0 10,5 10,4 9 5 24 13 NW 1029,9 20 22 0,0
20.03.2019 18:00:00 14,1 -2,4 16,2 10,3 10,4 12 6 29 15 NNW 1029,2 20 60 0,0
20.03.2019 17:00:00 14,9 -2,1 20,9 9,9 10,4 13 7 24 13 N 1029,0 20 60 0,0
20.03.2019 16:00:00 14,4 -3,0 21,6 9,6 10,4 11 6 30 16 NNO 1029,3 20 60 0,0
20.03.2019 15:00:00 14,2 -1,9 22,3 9,1 10,4 12 7 30 16 NNO 1029,9 20 60 0,0
20.03.2019 14:00:00 13,9 -1,7 21,3 8,8 10,4 11 6 29 16 N 1030,3 20 60 0,0
20.03.2019 13:00:00 12,9 -2,2 18,4 8,5 10,4 16 9 35 19 NNO 1031,2 20 60 0,0
20.03.2019 12:00:00 11,7 -1,8 16,7 8,3 10,4 18 10 39 21 NNO 1031,8 20 60 0,0
20.03.2019 11:00:00 9,8 -0,1 17,2 8,2 10,4 17 9 32 18 NNO 1032,1 20 60 0,0
20.03.2019 10:00:00 6,8 0,2 13,0 8,3 10,4 6 3 13 7 N 1032,9 20 60 0,0
20.03.2019 09:00:00 4,4 -1,0 7,6 8,5 10,4 3 2 7 4 NNW 1032,8 20 60 0,0
20.03.2019 08:00:00 2,1 -1,5 -2,2 8,6 10,4 4 2 7 4 NNW 1032,6 20 40 0,0
20.03.2019 07:00:00 0,3 -4,0 -2,7 8,8 10,4 0 0 12 7 N 1032,2 20 0 0,0
20.03.2019 06:00:00 0,3 -3,1 -3,1 9,0 10,4 2 1 9 5 NNO 1032,0 20 0 0,0
20.03.2019 05:00:00 1,0 -3,5 -2,3 9,2 10,4 2 1 11 6 NNO 1031,7 20 0 0,0
20.03.2019 04:00:00 3,2 -2,3 0,3 9,4 10,4 9 5 16 8 NNO 1031,5 20 0 0,0
20.03.2019 03:00:00 4,1 -2,3 -2,0 9,7 10,4 8 5 13 7 NO 1031,6 20 0 0,0
20.03.2019 02:00:00 1,7 -3,0 -1,8 9,9 10,4 4 2 9 5 ONO 1032,2 20 0 0,0
20.03.2019 01:00:00 2,5 -2,6 -1,3 10,1 10,4 4 2 11 6 NO 1032,2 20 0 0,0
20.03.2019 00:00:00 5,8 -2,3 0,6 10,2 10,4 6 3 11 6 NNO 1031,7 20 0 0,0
19.03.2019 23:00:00 6,1 -2,3 1,0 10,4 10,4 5 3 9 5 NO 1031,3 20 0 0,0
19.03.2019 22:00:00 6,6 -2,3 1,9 10,6 10,4 4 2 9 5 N 1030,5 20 0 0,0
19.03.2019 21:00:00 7,5 -2,0 3,1 10,7 10,4 4 2 10 5 N 1029,8 20 0 0,0
19.03.2019 20:00:00 8,4 -1,7 5,3 10,8 10,4 5 3 17 9 N 1029,2 20 0 0,0
19.03.2019 19:00:00 10,0 -0,8 8,5 10,7 10,4 9 5 26 14 NNW 1028,3 20 23 0,0
19.03.2019 18:00:00 11,7 -0,5 12,1 10,6 10,4 11 6 27 15 N 1027,4 20 32 0,0
19.03.2019 17:00:00 11,3 -0,8 12,2 10,4 10,4 12 6 26 14 N 1027,1 20 25 0,0
19.03.2019 16:00:00 12,8 0,2 12,7 10,2 10,4 10 6 25 14 NNW 1026,7 20 29 0,0
19.03.2019 15:00:00 10,9 1,4 13,6 9,9 10,4 7 4 22 12 N 1027,0 20 6 0,0
19.03.2019 14:00:00 10,6 1,1 14,5 9,6 10,4 14 8 35 19 N 1027,3 20 36 0,0
19.03.2019 13:00:00 10,2 3,0 12,1 9,5 10,4 11 6 28 15 NNW 1027,8 20 30 0,0
19.03.2019 12:00:00 9,8 4,2 10,8 9,4 10,4 9 5 22 12 NO 1028,0 20 21 0,0
19.03.2019 11:00:00 8,2 3,4 8,8 9,3 10,4 10 5 22 12 N 1027,9 20 22 0,0
19.03.2019 10:00:00 7,1 3,9 7,0 9,3 10,4 12 7 21 12 N 1027,8 20 33 0,0
19.03.2019 09:00:00 5,7 4,7 6,9 9,4 10,4 8 5 15 8 NNW 1027,7 20 56 0,0
19.03.2019 08:00:00 4,7 4,7 2,1 9,5 10,4 3 2 9 5 NW 1027,2 6 17 0,0
19.03.2019 07:00:00 3,9 3,6 1,7 9,6 10,4 2 1 9 5 NW 1026,6 10 0 0,0
19.03.2019 06:00:00 4,6 4,5 4,6 9,6 10,4 5 3 9 5 NW 1026,4 10 0 0,0
19.03.2019 05:00:00 4,7 4,6 3,7 9,7 10,4 2 1 6 3 NNW 1026,3 20 0 0,0
19.03.2019 04:00:00 4,8 4,5 4,3 9,8 10,4 3 2 7 4 W 1025,9 15 0 0,0
19.03.2019 03:00:00 5,0 4,6 4,5 9,9 10,4 3 1 6 3 WNW 1026,2 19 0 0,0
19.03.2019 02:00:00 5,0 4,4 4,8 9,9 10,4 4 2 10 5 NW 1026,4 16 0 0,4
19.03.2019 01:00:00 5,5 4,3 5,0 10,0 10,4 0 0 9 5 N 1026,6 13 0 0,4
19.03.2019 00:00:00 5,7 4,2 5,1 10,1 10,5 2 1 7 4 N 1026,8 20 0 0,0
18.03.2019 23:00:00 5,9 2,7 5,1 10,2 10,5 0 0 7 4 N 1026,9 20 0 0,0
18.03.2019 22:00:00 6,3 3,1 5,7 10,3 10,5 4 2 26 14 NNW 1026,9 20 0 0,0
18.03.2019 21:00:00 7,1 3,0 6,6 10,3 10,5 10 6 22 12 N 1026,6 20 0 0,0
18.03.2019 20:00:00 8,4 2,0 7,5 10,3 10,5 6 3 15 8 NW 1026,1 20 0 0,0
18.03.2019 19:00:00 9,2 2,1 8,4 10,2 10,5 6 4 23 12 NW 1025,5 20 0 0,0
18.03.2019 18:00:00 10,1 1,2 9,9 10,1 10,5 13 7 35 19 WNW 1025,0 20 0 0,0
18.03.2019 17:00:00 11,3 1,0 12,0 9,9 10,5 14 7 29 16 W 1024,4 20 21 0,0
18.03.2019 16:00:00 11,9 1,5 12,4 9,7 10,5 11 6 31 17 NW 1024,8 20 31 0,0
18.03.2019 15:00:00 10,9 1,1 12,5 9,4 10,5 13 7 29 16 WNW 1025,2 20 17 0,0
18.03.2019 14:00:00 10,8 2,6 12,3 9,1 10,5 11 6 27 15 W 1025,8 20 22 0,0
18.03.2019 13:00:00 10,2 2,8 10,8 8,9 10,5 8 5 29 15 NW 1026,4 20 21 0,0
18.03.2019 12:00:00 9,3 2,8 11,1 8,7 10,5 11 6 37 20 W 1026,9 20 34 0,0
18.03.2019 11:00:00 8,1 3,5 9,7 8,7 10,5 11 6 21 11 WNW 1027,2 20 36 0,0
18.03.2019 10:00:00 5,1 4,8 5,5 8,8 10,5 3 1 10 6 W 1027,6 20 0 0,0
18.03.2019 09:00:00 3,1 3,1 2,6 8,9 10,5 2 1 6 3 ZZW 1027,3 15 7 0,0
18.03.2019 08:00:00 1,1 1,1 -2,1 9,1 10,5 3 2 5 3 Z 1026,9 7 16 0,0
18.03.2019 07:00:00 0,5 0,2 -1,8 9,2 10,5 3 2 7 4 ZW 1026,5 14 0 0,0
18.03.2019 06:00:00 1,8 1,5 -1,1 9,4 10,5 3 2 8 5 ZW 1025,9 18 0 0,0
18.03.2019 05:00:00 2,6 2,2 -0,3 9,6 10,5 4 2 8 5 WZW 1025,2 20 0 0,0
18.03.2019 04:00:00 2,8 1,8 0,4 9,7 10,5 2 1 11 6 WZW 1024,9 20 0 0,0
18.03.2019 03:00:00 3,8 2,3 2,6 9,9 10,5 4 2 13 7 WZW 1024,7 20 0 0,0
18.03.2019 02:00:00 4,2 2,1 2,8 10,1 10,5 5 3 22 12 WZW 1024,7 20 0 0,0
18.03.2019 01:00:00 4,7 1,7 3,5 10,3 10,5 8 5 22 12 W 1024,7 20 0 0,0
18.03.2019 00:00:00 5,7 2,0 3,3 10,4 10,5 8 4 21 12 W 1024,3 20 0 0,0
17.03.2019 23:00:00 5,4 1,1 3,9 10,6 10,5 7 4 21 12 W 1024,5 20 0 0,0
17.03.2019 22:00:00 5,5 0,5 2,4 10,8 10,5 8 5 20 11 W 1023,9 20 0 0,0
17.03.2019 21:00:00 6,3 -0,5 3,4 10,9 10,5 10 5 24 13 WNW 1023,2 20 0 0,0
17.03.2019 20:00:00 7,4 -0,6 5,9 10,9 10,5 10 5 24 13 WNW 1022,4 20 0 0,0
17.03.2019 19:00:00 8,8 0,5 7,8 10,9 10,5 14 8 34 18 WNW 1021,4 20 10 0,0
17.03.2019 18:00:00 9,6 1,2 9,3 10,8 10,5 14 8 53 29 WNW 1020,4 20 32 0,0
17.03.2019 17:00:00 11,2 1,1 11,9 10,7 10,5 18 10 41 22 W 1019,6 20 27 0,0
17.03.2019 16:00:00 10,9 1,7 10,9 10,6 10,5 18 10 48 26 WNW 1019,4 20 33 0,0
17.03.2019 15:00:00 10,1 4,9 10,6 10,4 10,5 11 6 27 15 WNW 1019,2 20 22 0,0
17.03.2019 14:00:00 8,9 6,5 8,4 10,4 10,5 7 4 29 16 W 1019,3 20 0 0,4
17.03.2019 13:00:00 8,2 6,5 8,4 10,3 10,4 16 9 34 18 NW 1019,2 11 0 0,0
17.03.2019 12:00:00 8,2 7,1 8,4 10,3 10,4 13 7 41 22 WNW 1018,5 14 0 2,8
17.03.2019 11:00:00 9,7 9,2 9,6 10,3 10,4 10 6 32 18 ZW 1017,4 2,9 0 0,2
17.03.2019 10:00:00 9,7 8,1 9,6 10,3 10,4 16 9 30 16 ZZW 1017,0 18 0 0,0
17.03.2019 09:00:00 9,1 7,7 8,7 10,3 10,4 11 6 26 14 ZW 1017,2 15 11 0,0
17.03.2019 08:00:00 7,7 6,8 5,9 10,5 10,4 11 6 17 9 ZZW 1016,4 14 5 0,0
17.03.2019 07:00:00 6,5 5,8 3,8 10,6 10,4 5 3 10 5 ZZW 1016,1 17 0 0,0
17.03.2019 06:00:00 7,0 5,5 6,6 10,7 10,3 2 1 9 5 ZW 1015,6 20 0 0,0
17.03.2019 05:00:00 7,0 5,6 2,1 10,9 10,4 5 3 23 13 W 1015,3 20 0 0,0
17.03.2019 04:00:00 4,8 3,6 2,4 11,1 10,3 6 3 30 16 W 1014,6 20 0 0,0
17.03.2019 03:00:00 5,8 3,1 3,4 11,3 10,3 2 1 14 8 ZZO 1013,6 20 0 0,0
17.03.2019 02:00:00 6,7 4,0 3,5 11,5 10,3 7 4 12 6 OZO 1014,0 20 0 0,0
17.03.2019 01:00:00 9,3 4,1 5,4 11,7 10,3 7 4 14 7 NW 1014,1 20 0 0,0
17.03.2019 00:00:00 8,0 3,5 5,3 11,9 10,3 11 6 14 7 ZO 1014,7 20 0 0,0
16.03.2019 23:00:00 9,8 4,6 6,0 12,1 10,3 9 5 15 8 ZZO 1015,2 20 0 0,0
16.03.2019 22:00:00 8,4 4,2 4,9 12,3 10,3 11 6 14 8 ZZO 1015,8 20 0 0,0
16.03.2019 21:00:00 9,4 4,4 6,3 12,4 10,3 6 4 12 6 ZZO 1015,3 20 0 0,0
16.03.2019 20:00:00 12,2 5,4 8,6 12,4 10,2 9 5 11 6 ZO 1014,9 20 0 0,0
16.03.2019 19:00:00 15,2 4,5 9,9 12,3 10,3 5 3 9 5 Z 1015,0 20 32 0,0
16.03.2019 18:00:00 16,7 4,0 16,4 12,1 10,3 6 4 16 9 Z 1015,5 20 54 0,0
16.03.2019 17:00:00 18,3 6,8 22,8 11,7 10,3 6 3 15 8 Z 1015,9 20 60 0,0
16.03.2019 16:00:00 17,8 6,3 23,7 11,4 10,2 7 4 16 9 Z 1016,8 20 60 0,0
16.03.2019 15:00:00 16,8 7,4 22,3 11,0 10,2 5 3 15 8 ZO 1018,0 20 60 0,0
16.03.2019 14:00:00 15,4 6,9 22,1 10,6 10,2 5 3 17 9 ZO 1019,2 20 60 0,0
16.03.2019 13:00:00 13,7 6,3 20,8 10,4 10,2 8 4 16 9 Z 1020,6 20 60 0,0
16.03.2019 12:00:00 12,2 5,6 15,2 10,2 10,2 6 4 17 9 Z 1021,8 20 48 0,0
16.03.2019 11:00:00 10,6 5,1 11,8 10,2 10,2 8 4 18 10 ZZO 1022,7 20 5 0,0
16.03.2019 10:00:00 9,3 4,9 10,2 10,2 10,2 3 2 15 8 ZZO 1023,6 20 0 0,0
16.03.2019 09:00:00 8,7 5,1 8,3 10,2 10,2 4 2 9 5 Z 1024,1 20 0 0,0
16.03.2019 08:00:00 8,0 5,5 7,6 10,3 10,2 2 1 8 4 ZZO 1024,1 20 0 0,0
16.03.2019 07:00:00 8,0 5,6 7,6 10,3 10,2 4 2 12 6 Z 1024,4 20 0 0,0
16.03.2019 06:00:00 8,1 5,7 7,8 10,4 10,2 3 1 11 6 ZZW 1025,1 20 0 0,0
16.03.2019 05:00:00 8,2 6,3 7,9 10,4 10,1 0 0 10 6 N 1025,3 20 0 0,0
16.03.2019 04:00:00 8,2 7,0 8,0 10,5 10,1 0 0 9 5 N 1025,5 20 0 0,0
16.03.2019 03:00:00 8,4 7,2 8,2 10,5 10,1 2 1 9 5 WZW 1026,0 20 0 0,0
16.03.2019 02:00:00 8,6 7,4 8,4 10,6 10,1 3 1 12 6 W 1026,7 20 0 0,0
16.03.2019 01:00:00 8,8 7,6 8,6 10,7 10,2 5 3 14 7 W 1027,2 20 0 0,0
16.03.2019 00:00:00 9,0 7,9 8,9 10,7 10,1 3 2 13 7 W 1027,7 20 0 0,0
15.03.2019 23:00:00 9,1 8,2 9,0 10,7 10,1 5 3 13 7 W 1027,8 20 0 0,0
15.03.2019 22:00:00 9,4 8,2 9,1 10,8 10,1 5 3 24 13 W 1027,9 20 0 0,0
15.03.2019 21:00:00 10,1 7,3 9,7 10,8 10,1 8 5 20 11 W 1027,6 20 0 0,0
15.03.2019 20:00:00 10,4 7,1 9,8 10,8 10,1 6 3 16 9 W 1027,2 20 0 0,0
15.03.2019 19:00:00 10,7 6,8 10,3 10,7 10,1 7 4 23 13 W 1026,8 20 0 0,0
15.03.2019 18:00:00 11,1 7,0 11,3 10,6 10,1 10 5 31 17 W 1026,3 20 1 0,0
15.03.2019 17:00:00 12,2 8,3 12,6 10,5 10,1 10 5 26 14 W 1025,7 20 0 0,0
15.03.2019 16:00:00 12,4 9,0 11,9 10,3 10,1 13 7 35 19 W 1025,8 20 1 0,0
15.03.2019 15:00:00 12,0 10,9 11,1 10,1 10,1 8 5 35 19 W 1025,9 20 2 0,4
15.03.2019 14:00:00 12,3 10,0 12,0 9,9 10,1 12 7 30 16 W 1026,1 20 8 0,0
15.03.2019 13:00:00 11,4 10,3 11,3 9,8 10,1 11 6 30 16 W 1026,8 18 0 0,2

tt = temperatuur
td = dauwpunt
tt 5cm = temperatuur 5cm
tt -20cm = temperatuur -20cm
tt -100cm = temperatuur -100cm
ff = windsnelheid
fx = windstoten
dd = windrichting
ppp = luchtdruk
vv = zicht
sd = Zonneschijnduur
rr = neerslag

Weerstations in de omgeving